Flag for Norway Weather past 2 weeks in Fagernes, Norway

Now
17 °F

Cold.


Feels Like: 17 °F
Forecast: 9 / 23 °F
Wind: 1 mph from Northwest

Location: Fagernes

Current Time: Feb 1, 2015 at 1:57:51 AM

Latest Report: Feb 1, 2015 at 1:00 AM


Visibility: N/A

Pressure: 29.15 "Hg

Humidity: 88%

Dew point: 15 °F

Location of FagernesLocation

Historic Weather in Fagernes — Graph

°F

Fagernes temperature yesterday

Maximum temperature yesterday: 28 °F (at 1:00 AM)
Minimum temperature yesterday: 16 °F (at 11:00 PM)
Average temperature yesterday: 25 °F

Past Weeks' High & Low Weather Summary

 TemperatureHumidityPressure
High36 °F (Jan 17, 12:00 AM)95% (Jan 29, 5:00 AM)30.36 "Hg (Jan 29, 5:00 AM)
Low0 °F (Jan 25, 8:00 AM)60% (Jan 17, 12:00 AM)28.44 "Hg (Jan 29, 6:00 AM)
Average19 °F88%29.66 "Hg
* Reported Midnight between Jan 16 and Jan 17 — Midnight between Jan 31 and Feb 1, Fagernes, Weather by CustomWeather, © 2014

Note: Actual official high and low records may vary slightly from our data, if they occured in-between our weather recording intervals... More about our weather records

Advertising

Fagernes weather history for previous 24 hours

 ConditionsComfort  
Time TempWeatherWind HumidityBarometerVisibility
12:00 AM
Feb 1
16 °FCold.No wind91%29.15 "HgN/A
11:00 PM
Jan 31
16 °FCold.N/A87%29.15 "HgN/A
10:00 PM19 °FCold.3 mph87%29.15 "HgN/A
9:00 PM20 °FCold.2 mph88%29.15 "HgN/A
8:00 PM22 °FCold.2 mph88%29.12 "HgN/A
7:00 PM22 °FOvercast.1 mph88%29.12 "Hg19 mi
6:00 PM24 °FCold.2 mph87%29.12 "HgN/A
5:00 PM26 °FChilly.1 mph84%29.09 "HgN/A
4:00 PM27 °FLight snow. Partly sunny.1 mph81%29.09 "Hg19 mi
3:00 PM28 °FChilly.1 mph83%29.06 "HgN/A
2:00 PM28 °FChilly.No wind83%29.06 "HgN/A
1:00 PM27 °FOvercast.1 mph82%29.06 "Hg19 mi
12:00 PM27 °FChilly.1 mph86%29.06 "HgN/A
11:00 AM26 °FChilly.1 mph88%29.06 "HgN/A
10:00 AM26 °FLight snow. Overcast.1 mph90%29.06 "Hg16 mi
9:00 AM26 °FChilly.1 mph91%29.03 "HgN/A
8:00 AM26 °FChilly.2 mph90%29.03 "HgN/A
7:00 AM26 °FOvercast.1 mph91%29.00 "Hg19 mi
6:00 AM26 °FChilly.2 mph91%29.00 "HgN/A
5:00 AM27 °FChilly.1 mph91%29.00 "HgN/A
4:00 AM27 °FOvercast.No wind90%28.97 "Hg19 mi
3:00 AM28 °FChilly.No wind91%28.97 "HgN/A
2:00 AM28 °FChilly.2 mph88%28.94 "HgN/A
1:00 AM28 °FLight snow. Overcast.1 mph88%28.94 "Hg16 mi
Weather by CustomWeather, © 2014

See weather overviewHow to use our weather pages